Weather History for K8D3 - July, 2012

Change the Weather History Date:

Friday, July 20, 2012

  Actual Average Record
Temperature  
Mean Temperature 83 °F 72 °F  
Max Temperature 94 °F 84 °F 102 °F (1934)
Min Temperature 71 °F 60 °F 47 °F (1992)
Degree Days  
Heating Degree Days 0 0  
Month to date heating degree days 0 3  
Since 1 June heating degree days 27 65  
Since 1 July heating degree days 0 3  
Cooling Degree Days 18 7  
Month to date cooling degree days 236 129  
Year to date cooling degree days 455 246  
Since 1 June cooling degree days 397 223  
Growing Degree Days 33 (Base 50)    
Moisture  
Dew Point 71 °F    
Average Humidity 66    
Maximum Humidity 93    
Minimum Humidity 39    
Precipitation  
Precipitation 0.08 in 0.13 in 1.74 in (2001)
Month to date precipitation 0.54 2.42  
Year to date precipitation 11.44 13.14  
Sea Level Pressure  
Sea Level Pressure 29.92 in    
Wind  
Wind Speed 9 mph (SSE)    
Max Wind Speed 28 mph    
Max Gust Speed 39 mph    
T = Trace of Precipitation, MM = Missing Value Source: NWS Daily Summary

Daily Weather History Graph

Daily Weather History Graph

Search for Another Location

Airport or City:

Trip Planner

Search our weather history database for the weather conditions in past years. The results will help you decide how hot, cold, wet, or windy it might be!

Date:

Astronomy

Jul. 20, 2012 Rise Set
Actual Time 5:58 AM CDT 9:09 PM CDT
Civil Twilight 5:22 AM CDT 9:45 PM CDT
Nautical Twilight 4:36 AM CDT 10:31 PM CDT
Astronomical Twilight 3:38 AM CDT 11:28 PM CDT
Moon 7:45 AM CDT (7/20) 9:40 PM CDT (7/20)
Length of Visible Light 16h 22m
Length of Day
15h 10m
Waxing Crescent, 3% of the Moon is Illuminated
Jul 20
Waxing Crescent
Jul 26
First Quarter
Aug 1
Full
Aug 9
Last Quarter
Aug 17
New

Hourly Weather History & Observations

Time (CDT) Temp. Heat Index Dew Point Humidity Pressure Visibility Wind Dir Wind Speed Gust Speed Precip Events Conditions
12:56 AM 75.0 °F - 72.0 °F 90% 29.93 in - South 10.4 mph - N/A   Unknown
1:56 AM 73.9 °F - 71.1 °F 91% 29.91 in - South 9.2 mph - N/A   Unknown
2:56 AM 73.0 °F - 71.1 °F 93% 29.90 in - SSW 9.2 mph - N/A   Unknown
3:56 AM 73.0 °F - 71.1 °F 93% 29.90 in - SE 8.1 mph - N/A   Unknown
4:56 AM 73.9 °F - 71.1 °F 91% 29.91 in - East 8.1 mph - N/A   Unknown
5:46 AM 73.4 °F - 71.6 °F 94% 29.98 in - South 8.1 mph - N/A   Unknown
5:56 AM 75.9 °F - 71.1 °F 85% 29.92 in - SSW 9.2 mph - N/A   Unknown
6:56 AM 81.0 °F 83.8 °F 68.0 °F 65% 30.00 in - NNW 18.4 mph 39.1 mph N/A   Unknown
7:56 AM 73.9 °F - 69.1 °F 85% 29.98 in - North 4.6 mph - 0.03 in   Unknown
8:56 AM 73.0 °F - 66.9 °F 81% 30.01 in - NNE 9.2 mph - N/A   Unknown
9:56 AM 73.9 °F - 63.0 °F 68% 29.96 in - WSW 19.6 mph 24.2 mph 0.05 in   Unknown
10:56 AM 81.0 °F 83.3 °F 66.9 °F 62% 29.92 in - SW 13.8 mph - N/A   Unknown
11:56 AM 88.0 °F 92.1 °F 69.1 °F 53% 29.91 in - SSW 9.2 mph - N/A   Unknown
12:56 PM 91.9 °F 93.3 °F 64.0 °F 39% 29.91 in - SW 6.9 mph - N/A   Unknown
1:56 PM 93.0 °F 95.0 °F 64.9 °F 39% 29.90 in - South 5.8 mph - N/A   Unknown
2:56 PM 93.0 °F 95.9 °F 66.0 °F 41% 29.89 in - South 10.4 mph - N/A   Unknown
3:56 PM 90.0 °F 101.3 °F 75.9 °F 63% 29.89 in - ESE 15.0 mph - N/A   Unknown
4:56 PM 90.0 °F 99.0 °F 73.9 °F 59% 29.87 in - SSE 11.5 mph - N/A   Unknown
5:56 PM 88.0 °F 96.5 °F 73.9 °F 63% 29.87 in - SSE 12.7 mph - N/A   Unknown
6:56 PM 87.1 °F 96.3 °F 75.0 °F 67% 29.86 in - SE 5.8 mph - N/A   Unknown
7:56 PM 84.9 °F 93.3 °F 75.0 °F 72% 29.88 in - SSE 5.8 mph - N/A   Unknown
8:56 PM 82.0 °F 90.2 °F 77.0 °F 85% 29.89 in - East 3.5 mph - N/A   Unknown
9:56 PM 80.1 °F 85.1 °F 75.0 °F 85% 29.90 in - East 4.6 mph - N/A   Unknown
10:56 PM 78.1 °F - 75.0 °F 90% 29.91 in - Calm Calm - N/A   Unknown
11:56 PM 77.0 °F - 73.9 °F 90% 29.90 in - Calm Calm - N/A   Unknown